This is the latest recevied weather packets stored in our database for station/object N1ORT. If no packets are shown the sender has not sent any weather packets the latest 10 day(s).
| Time | Temp. | Humidity | Pressure | Rain* | Wind** | Luminosity | Snow |
|---|---|---|---|---|---|---|---|
| 1777888312 | 6.67° C | 67% | 1008.3 hPa | 0 mm | - | 8 W/m² | - |
| 1777888009 | 6.67° C | 71% | 1008.3 hPa | 0 mm | - | 5 W/m² | - |
| 1777887706 | 6.11° C | 69% | 1008.3 hPa | 0 mm | - | 3 W/m² | - |
| 1777887403 | 6.11° C | 70% | 1008.1 hPa | 0 mm | - | 2 W/m² | - |
| 1777887098 | 6.11° C | 70% | 1008.2 hPa | 0 mm | - | 1 W/m² | - |
| 1777886794 | 6.11° C | 71% | 1008.1 hPa | 0 mm | - | 0 W/m² | - |
| 1777886491 | 6.11° C | 69% | 1008 hPa | 0 mm | - | 0 W/m² | - |
| 1777886189 | 5.56° C | 71% | 1008.2 hPa | 0 mm | - | 0 W/m² | - |
| 1777885886 | 6.11° C | 69% | 1008 hPa | 0 mm | - | 0 W/m² | - |
| 1777885585 | 6.11° C | 67% | 1008.1 hPa | 0 mm | - | 0 W/m² | - |
| 1777885283 | 6.11° C | 67% | 1008 hPa | 0 mm | - | 0 W/m² | - |
| 1777884980 | 6.11° C | 66% | 1008.2 hPa | 0 mm | - | 0 W/m² | - |
| 1777884675 | 6.11° C | 67% | 1008.1 hPa | 0 mm | - | 0 W/m² | - |
| 1777884373 | 6.11° C | 67% | 1008.2 hPa | 0 mm | - | 0 W/m² | - |
| 1777884069 | 6.11° C | 68% | 1008.3 hPa | 0 mm | - | 0 W/m² | - |
| 1777883767 | 6.11° C | 67% | 1008.2 hPa | 0 mm | - | 0 W/m² | - |
| 1777883463 | 6.11° C | 70% | 1008.1 hPa | 0 mm | - | 0 W/m² | - |
| 1777883159 | 6.11° C | 70% | 1008.2 hPa | 0 mm | - | 0 W/m² | - |
| 1777882855 | 6.11° C | 71% | 1008.3 hPa | 0 mm | - | 0 W/m² | - |
| 1777882553 | 6.11° C | 69% | 1008.4 hPa | 0 mm | - | 0 W/m² | - |
| 1777882249 | 6.11° C | 72% | 1008.3 hPa | 0 mm | - | 0 W/m² | - |
| 1777881945 | 5.56° C | 73% | 1008.1 hPa | 0 mm | - | 0 W/m² | - |
| 1777881642 | 5.56° C | 73% | 1008.5 hPa | 0 mm | - | 0 W/m² | - |
| 1777881339 | 5.56° C | 72% | 1008.4 hPa | 0 mm | - | 0 W/m² | - |
| 1777881036 | 5.56° C | 70% | 1008.3 hPa | 0 mm | - | 0 W/m² | - |
* Rain latest hour (hover to see other rain measurements)
** Current wind speed in m/s (hover to see current wind gust speed)